Location: Unspecified
(0.0000°N, 0.0000°E)
Time: 14:12:30
(UTC+00:00)

Vanguard 2 - Pass Details

Date: 18 September 2019
Orbit: 554 x 2937 km, 32.9° (Epoch: 13 October)

Event Time Altitude Azimuth Distance (km) Brightness Sun altitude
Rises 11:04:30 0° 324° (NW) 2,718 10.3 77.4°
Reaches altitude 10° 11:06:54 10° 337° (NNW) 1,818 9.6 78.0°
Maximum altitude 11:10:18 27° 37° (NE) 1,143 9.0 78.8°
Drops below altitude 10° 11:14:16 10° 96° (E) 2,143 10.1 79.8°
Sets 11:17:21 0° 108° (ESE) 3,330 10.9 80.6°
